Погода в Биджапуре

Индия     16°49′33″N   75°43′29″E
темп.,
°C
ветер,
м/с
пор.,
м/с
влажн.,
%
обл.,
%
осадки,
мм/ч
давл.,
гПа
погр.,
м
20 апреля, вт
вт2023:30+30з810418 0.0 1009455
02:30+28з610465 0.0 1008333
05:30+26з46500 0.0 1009173
08:30+31ссз67282 0.0 1010664
11:30+35с55184 0.0 10091995
14:30+37ссз33154 0.0 10063872
17:30+37с331422 0.0 10054053
20:30+36св341577 0.0 1007419
21 апреля, ср
ср2123:30+32з811284 0.0 1008519
02:30+28з473934 0.0 1008291
05:30+26зюз584991 0.0 1010226
08:30+30сз5734100 0.0 1012616
11:30+36ссз651756 0.0 10102073
14:30+38ссз431548 0.0 10073826
17:30+37ссз431490 0.0 10064035
20:30+35ссз461663 0.0 1008157
22 апреля, чт
чт2223:30+31зсз8113082 0.0 1009338
02:30+30ссз9132884 0.0 1008584
05:30+28ссз7133049 0.0 1009408
08:30+32с91025100 0.0 1010662
11:30+36ссв7724100 0.0 10102057
14:30+38всв541998 0.0 10064308
17:30+37с321797 0.0 10054142
20:30+35вюв5519100 0.0 1008569
23 апреля, пт
пт2323:30+31зюз4535100 0.1 1010425
02:30+28ююз334371 0.0 1008234
05:30+28юз2246100 0.0 1009237
08:30+28зюз554298 0.0 1011321
11:30+34с13259 0.0 10102186
14:30+37св222086 0.0 10063901
17:30+37ссв431986 0.1 10052890
20:30+33юв553034 0.1 1008389
24 апреля, сб
сб2423:30+31з673439 0.1 1009395
02:30+28зюз454496 0.0 1008178
05:30+27зсз4646100 0.0 1009162
08:30+31сз4527100 0.0 1012809
11:30+36с551774 0.0 10101618
14:30+38св331433 0.0 10063761
17:30+39всв331316 0.0 10054114
20:30+36ююв681941 0.0 1007334